Location: Curries
(43.0713°N, 80.7206°W)
Time: 07:56:33
(UTC+00:00)

Envisat - Visible Passes

Search period start: 24 January 2022 00:00
Search period end: 03 February 2022 00:00
Orbit: 764 x 766 km, 98.2° (Epoch: 23 January)

Date Brightness Start Highest point End Pass type
(mag) Time Alt. Az. Time Alt. Az. Time Alt. Az.
24 Jan 5.7 08:59:04 10° ENE 09:01:49 14° E 09:04:33 10° ESE visible
24 Jan 2.8 10:36:16 10° N 10:41:19 69° WNW 10:46:21 10° SSW visible
25 Jan 3.6 09:59:26 10° NNE 10:04:26 55° E 10:09:24 10° S visible
25 Jan 4.2 11:39:25 10° NNW 11:43:02 20° WNW 11:46:39 10° WSW visible
25 Jan 6.2 22:57:12 10° WSW 22:59:22 13° W 23:01:32 10° WNW visible
26 Jan 5.0 09:23:12 10° NE 09:27:21 25° E 09:31:30 10° SSE visible
26 Jan 3.3 11:01:45 10° N 11:06:30 40° WNW 11:11:12 10° SW visible
27 Jan 6.0 08:48:38 10° ENE 08:50:04 11° E 08:51:30 10° ESE visible
27 Jan 2.8 10:24:38 10° NNE 10:29:45 87° WNW 10:34:49 10° SSW visible
27 Jan 4.7 12:06:01 10° NW 12:07:58 12° WNW 12:09:55 10° W visible
28 Jan 4.1 09:47:57 10° NNE 09:52:48 43° E 09:57:36 10° S visible
28 Jan 4.0 11:27:30 10° NNW 11:31:34 25° WNW 11:35:37 10° WSW visible
29 Jan 5.3 09:11:58 10° NE 09:15:40 20° E 09:19:19 10° SE visible
29 Jan 3.1 10:50:02 10° N 10:54:57 51° WNW 10:59:51 10° SW visible
30 Jan 3.1 10:13:03 10° NNE 10:18:09 75° ESE 10:23:13 10° S visible
30 Jan 4.5 11:53:41 10° NNW 11:56:32 15° WNW 11:59:23 10° W visible
31 Jan 4.5 09:36:32 10° NNE 09:41:09 34° E 09:45:43 10° SSE visible
31 Jan 3.7 11:15:40 10° N 11:20:04 30° WNW 11:24:28 10° SW visible
01 Feb 5.7 09:00:56 10° NE 09:03:56 16° E 09:06:56 10° SE visible
01 Feb 2.9 10:38:21 10° N 10:43:24 65° WNW 10:48:25 10° SSW visible
02 Feb 3.5 10:01:30 10° NNE 10:06:32 59° E 10:11:31 10° S visible
02 Feb 4.3 11:41:36 10° NNW 11:45:05 19° WNW 11:48:33 10° WSW visible
